WA7ZVY-4 Weather Reports


Display with metric or nautical units.
time (UTC)temp
F
wind
direction
speed
MPH
gust
MPH
rain 1hr
in
rain 24hr
in
rain mn
in
humidity
%
barometer
mb
20260831232425 66 327 8.0 8.0 0.00 0.00 0.00 75 1009.4
20260831232316 66 179 5.0 8.0 0.00 0.00 0.00 75 1009.5
20260831231918 66 211 4.0 5.0 0.00 0.00 0.00 76 1009.4
20260831231759 66 242 3.0 9.0 0.00 0.00 0.00 75 1009.5
20260831231411 66 242 6.0 9.0 0.00 0.00 0.00 76 1009.5
20260831231242 66 165 5.0 9.0 0.00 0.00 0.00 76 1009.6
20260831230904 66 0 0.0 9.0 0.00 0.00 0.00 75 1009.6
20260831230725 66 273 5.0 9.0 0.00 0.00 0.00 75 1009.6
20260831230357 66 0 0.0 9.0 0.00 0.00 0.00 74 1009.6
20260831230208 66 337 7.0 9.0 0.00 0.00 0.00 74 1009.6
20260831225850 66 225 1.0 7.0 0.00 0.00 0.00 74 1009.6
20260831225651 66 302 3.0 7.0 0.00 0.00 0.00 74 1009.6
20260831225343 67 302 5.0 7.0 0.00 0.00 0.00 73 1009.6
20260831225134 67 191 5.0 7.0 0.00 0.00 0.00 74 1009.4
20260831224836 67 240 1.0 7.0 0.00 0.00 0.00 73 1009.3
20260831224617 67 239 3.0 7.0 0.00 0.00 0.00 73 1009.4
20260831224059 67 263 3.0 7.0 0.00 0.00 0.00 73 1009.4
20260831223822 67 196 1.0 3.0 0.00 0.00 0.00 73 1009.5
20260831223543 67 201 4.0 10.0 0.00 0.00 0.00 73 1009.5
20260831223315 67 0 0.0 10.0 0.00 0.00 0.00 73 1009.5
20260831223025 67 215 5.0 10.0 0.00 0.00 0.00 73 1009.5
20260831222808 67 182 7.0 10.0 0.00 0.00 0.00 74 1009.4
20260831222509 67 288 3.0 10.0 0.00 0.00 0.00 73 1009.5
20260831222301 67 194 6.0 10.0 0.00 0.00 0.00 73 1009.5
20260831221952 68 294 7.0 10.0 0.00 0.00 0.00 72 1009.5
20260831221754 68 296 4.0 10.0 0.00 0.00 0.00 73 1009.5
20260831221435 68 296 4.0 10.0 0.00 0.00 0.00 73 1009.5
20260831221247 68 295 6.0 10.0 0.00 0.00 0.00 73 1009.5
20260831220918 68 217 4.0 10.0 0.00 0.00 0.00 73 1009.5
20260831220740 68 260 6.0 10.0 0.00 0.00 0.00 74 1009.5
20260831220400 69 299 6.0 10.0 0.00 0.00 0.00 74 1009.2
20260831220233 69 275 7.0 10.0 0.00 0.00 0.00 75 1009.3
20260831215844 68 245 3.0 8.0 0.00 0.00 0.00 75 1009.1
20260831215726 68 275 3.0 8.0 0.00 0.00 0.00 75 1009.3
20260831215328 68 238 3.0 8.0 0.00 0.00 0.00 75 1009.3
20260831215218 68 267 6.0 8.0 0.00 0.00 0.00 75 1009.3
20260831214809 68 274 5.0 8.0 0.00 0.00 0.00 75 1009.3
20260831214712 68 274 4.0 8.0 0.00 0.00 0.00 75 1009.2
20260831214252 68 291 5.0 8.0 0.00 0.00 0.00 74 1009.3
20260831214206 68 291 4.0 8.0 0.00 0.00 0.00 74 1009.3
20260831213735 68 204 5.0 6.0 0.00 0.00 0.00 74 1009.3
20260831213658 68 204 5.0 6.0 0.00 0.00 0.00 75 1009.2
20260831213218 68 215 3.0 4.0 0.00 0.00 0.00 75 1009.2
20260831213151 68 215 2.0 4.0 0.00 0.00 0.00 75 1009.2
20260831212701 68 281 2.0 3.0 0.00 0.00 0.00 77 1009.2
20260831212644 68 281 2.0 3.0 0.00 0.00 0.00 77 1009.2
20260831212144 67 327 5.0 8.0 0.00 0.00 0.00 75 1009.2
20260831212137 67 327 6.0 8.0 0.00 0.00 0.00 75 1009.2
20260831211627 68 303 6.0 8.0 0.00 0.00 0.00 75 1009.2
20260831211122 68 261 5.0 8.0 0.00 0.00 0.00 74 1009.3
20260831211110 68 261 6.0 8.0 0.00 0.00 0.00 74 1009.3
20260831210616 68 323 6.0 8.0 0.00 0.00 0.00 74 1009.1
20260831210553 68 323 6.0 8.0 0.00 0.00 0.00 74 1009.1
20260831210108 69 221 5.0 8.0 0.00 0.00 0.00 75 1009.1
20260831210036 69 282 5.0 8.0 0.00 0.00 0.00 74 1009.1
20260831205519 68 289 4.0 8.0 0.00 0.00 0.00 75 1009.1
20260831205055 68 273 3.0 8.0 0.00 0.00 0.00 76 1009.1
20260831205002 68 273 5.0 8.0 0.00 0.00 0.00 76 1009.1
20260831204547 68 294 2.0 6.0 0.00 0.00 0.00 76 1009.1
20260831204446 68 294 4.0 6.0 0.00 0.00 0.00 76 1009.1
20260831204040 67 254 4.0 6.0 0.00 0.00 0.00 76 1009.2
20260831203928 67 254 5.0 7.0 0.00 0.00 0.00 75 1009.2
20260831203533 67 327 1.0 7.0 0.00 0.00 0.00 76 1009.4
20260831203411 67 327 2.0 7.0 0.00 0.00 0.00 75 1009.4
20260831203026 67 301 5.0 7.0 0.00 0.00 0.00 75 1009.4
20260831202854 67 264 5.0 7.0 0.00 0.00 0.00 75 1009.5
20260831202519 67 306 4.0 7.0 0.00 0.00 0.00 75 1009.5
20260831202337 67 0 0.0 7.0 0.00 0.00 0.00 75 1009.5
20260831202012 68 338 5.0 6.0 0.00 0.00 0.00 74 1009.4
20260831201820 68 281 5.0 5.0 0.00 0.00 0.00 75 1009.4
20260831201506 67 308 4.0 7.0 0.00 0.00 0.00 76 1009.4
20260831201303 67 236 2.0 7.0 0.00 0.00 0.00 75 1009.4
20260831200958 67 236 4.0 7.0 0.00 0.00 0.00 75 1009.4
20260831200746 67 331 7.0 7.0 0.00 0.00 0.00 75 1009.4
20260831200451 67 331 5.0 7.0 0.00 0.00 0.00 75 1009.4
20260831200232 67 264 6.0 7.0 0.00 0.00 0.00 75 1009.4
20260831195944 67 264 6.0 7.0 0.00 0.00 0.00 76 1009.4
20260831195713 67 260 4.0 6.0 0.00 0.00 0.00 76 1009.4
20260831195437 66 260 4.0 6.0 0.00 0.00 0.00 76 1009.3
20260831195155 66 266 5.0 6.0 0.00 0.00 0.00 75 1009.3
20260831194931 66 322 6.0 10.0 0.00 0.00 0.00 75 1009.2
20260831194638 66 327 6.0 10.0 0.00 0.00 0.00 75 1009.2
20260831194423 66 263 5.0 10.0 0.00 0.00 0.00 75 1009.3
20260831194122 66 334 4.0 10.0 0.00 0.00 0.00 75 1009.3
20260831193917 66 334 5.0 10.0 0.00 0.00 0.00 74 1009.3
20260831193604 66 324 7.0 10.0 0.00 0.00 0.00 74 1009.4
20260831193409 66 1 5.0 10.0 0.00 0.00 0.00 73 1009.3
20260831193047 66 312 5.0 8.0 0.00 0.00 0.00 73 1009.3
20260831192902 67 273 5.0 8.0 0.00 0.00 0.00 73 1009.3
20260831192530 66 320 5.0 8.0 0.00 0.00 0.00 73 1009.3
20260831192355 66 320 5.0 8.0 0.00 0.00 0.00 73 1009.3
20260831192013 66 298 4.0 8.0 0.00 0.00 0.00 73 1009.3
20260831191848 66 12 3.0 8.0 0.00 0.00 0.00 73 1009.3
20260831191457 66 308 5.0 7.0 0.00 0.00 0.00 72 1009.2
20260831191341 66 315 4.0 7.0 0.00 0.00 0.00 72 1009.2
20260831190939 67 294 4.0 5.0 0.00 0.00 0.00 72 1009.3
20260831190835 67 319 4.0 4.0 0.00 0.00 0.00 72 1009.4
20260831190422 67 240 0.0 8.0 0.00 0.00 0.00 73 1009.4
20260831185905 66 0 0.0 8.0 0.00 0.00 0.00 73 1009.4
20260831185822 66 0 0.0 8.0 0.00 0.00 0.00 73 1009.4
20260831185348 66 15 2.0 8.0 0.00 0.00 0.00 72 1009.5
20260831185314 66 7 3.0 8.0 0.00 0.00 0.00 72 1009.6
20260831184833 66 322 5.0 8.0 0.00 0.00 0.00 71 1009.7
20260831184806 66 315 5.0 8.0 0.00 0.00 0.00 71 1009.7
20260831184314 66 280 3.0 6.0 0.00 0.00 0.00 72 1009.6
20260831184300 66 324 4.0 6.0 0.00 0.00 0.00 72 1009.6
20260831183752 66 334 3.0 6.0 0.00 0.00 0.00 72 1009.7
20260831183240 66 338 5.0 6.0 0.00 0.00 0.00 73 1009.7
20260831182723 66 355 3.0 6.0 0.00 0.00 0.00 73 1009.8
20260831182231 66 302 2.0 7.0 0.00 0.00 0.00 74 1009.8
20260831182206 66 302 4.0 7.0 0.00 0.00 0.00 74 1009.9
20260831180710 66 323 6.0 7.0 0.00 0.00 0.00 73 1010.0
20260831180615 66 326 4.0 6.0 0.00 0.00 0.00 73 1010.0
20260831180203 66 274 4.0 6.0 0.00 0.00 0.00 72 1010.0
20260831180059 66 274 3.0 6.0 0.00 0.00 0.00 72 1010.0
20260831175657 66 309 4.0 6.0 0.00 0.00 0.00 71 1010.0
20260831175541 66 299 3.0 6.0 0.00 0.00 0.00 71 1010.0
20260831175151 66 329 3.0 6.0 0.00 0.00 0.00 71 1009.8
20260831175024 66 329 4.0 6.0 0.00 0.00 0.00 71 1010.0
20260831174642 66 291 5.0 5.0 0.00 0.00 0.00 71 1010.0
20260831174507 66 291 5.0 5.0 0.00 0.00 0.00 71 1009.9
20260831174135 66 334 4.0 5.0 0.00 0.00 0.00 72 1009.9
20260831173950 66 0 0.0 4.0 0.00 0.00 0.00 73 1009.9
20260831173628 66 291 2.0 4.0 0.00 0.00 0.00 74 1010.0
20260831173433 66 291 2.0 4.0 0.00 0.00 0.00 74 1009.9
20260831173121 65 289 1.0 4.0 0.00 0.00 0.00 74 1010.0
20260831172917 65 289 1.0 4.0 0.00 0.00 0.00 74 1010.0
20260831172614 65 257 2.0 4.0 0.00 0.00 0.00 75 1009.9
20260831172359 65 0 0.0 4.0 0.00 0.00 0.00 75 1010.0
20260831172107 65 0 0.0 3.0 0.00 0.00 0.00 76 1009.8
20260831171842 65 0 0.0 3.0 0.00 0.00 0.00 76 1009.8
20260831171600 65 264 1.0 3.0 0.00 0.00 0.00 76 1009.8
20260831171325 65 313 1.0 3.0 0.00 0.00 0.00 76 1009.8
20260831171053 65 0 0.0 3.0 0.00 0.00 0.00 77 1009.8
20260831170808 65 0 0.0 3.0 0.00 0.00 0.00 77 1009.8
20260831170546 64 298 1.0 2.0 0.00 0.00 0.00 78 1009.8
20260831170251 64 0 0.0 4.0 0.00 0.00 0.00 78 1009.8
20260831170039 64 0 0.0 4.0 0.00 0.00 0.00 79 1009.8
20260831165734 64 0 0.0 4.0 0.00 0.00 0.00 80 1009.8
20260831165532 64 0 0.0 4.0 0.00 0.00 0.00 80 1009.8
20260831165217 64 308 2.0 4.0 0.00 0.00 0.00 81 1009.9
20260831165025 64 308 3.0 4.0 0.00 0.00 0.00 82 1009.9
20260831164700 63 306 2.0 4.0 0.00 0.00 0.00 83 1009.9
20260831164518 63 0 0.0 3.0 0.00 0.00 0.00 84 1009.9
20260831164143 63 25 1.0 2.0 0.00 0.00 0.00 84 1009.9
20260831164011 63 0 0.0 0.0 0.00 0.00 0.00 84 1009.9
20260831163626 62 0 0.0 0.0 0.00 0.00 0.00 85 1009.8
20260831163504 62 0 0.0 0.0 0.00 0.00 0.00 85 1009.8
20260831163109 62 0 0.0 0.0 0.00 0.00 0.00 86 1009.8
20260831162552 62 0 0.0 0.0 0.00 0.00 0.00 87 1009.9
20260831162450 62 0 0.0 0.0 0.00 0.00 0.00 87 1009.9
20260831162035 62 0 0.0 0.0 0.00 0.00 0.00 88 1010.0
20260831161943 62 0 0.0 0.0 0.00 0.00 0.00 88 1010.0
20260831161518 62 0 0.0 0.0 0.00 0.00 0.00 90 1010.1
20260831161436 62 0 0.0 0.0 0.00 0.00 0.00 90 1010.1
20260831161001 62 0 0.0 0.0 0.00 0.00 0.00 92 1010.1
20260831160929 62 0 0.0 0.0 0.00 0.00 0.00 92 1010.1
20260831160513 61 0 0.0 0.0 0.00 0.00 0.00 94 1010.2
20260831160444 62 0 0.0 0.0 0.00 0.00 0.00 94 1010.1
20260831160422 61 0 0.0 0.0 0.00 0.00 0.00 94 1010.2
20260831155927 61 0 0.0 0.0 0.00 0.00 0.00 95 1010.3
20260831155915 61 0 0.0 0.0 0.00 0.00 0.00 95 1010.3
20260831155408 60 0 0.0 0.0 0.00 0.00 0.00 96 1010.3
20260831154853 59 0 0.0 0.0 0.00 0.00 0.00 97 1010.2
20260831154354 58 0 0.0 0.0 0.00 0.00 0.00 98 1010.3
20260831154336 58 0 0.0 0.0 0.00 0.00 0.00 98 1010.3
20260831153847 58 0 0.0 0.0 0.00 0.00 0.00 98 1010.3
20260831153819 58 0 0.0 0.0 0.00 0.00 0.00 98 1010.4
20260831153340 57 0 0.0 0.0 0.00 0.00 0.00 99 1010.4
20260831153302 57 0 0.0 0.0 0.00 0.00 0.00 99 1010.4
20260831152833 56 0 0.0 0.0 0.00 0.00 0.00 99 1010.5
20260831152745 56 0 0.0 0.0 0.00 0.00 0.00 99 1010.5
20260831152329 56 0 0.0 0.0 0.00 0.00 0.00 100 1010.5
20260831152228 56 0 0.0 0.0 0.00 0.00 0.00 100 1010.5
20260831151819 55 0 0.0 0.0 0.00 0.00 0.00 100 1010.5
20260831151711 55 0 0.0 0.0 0.00 0.00 0.00 100 1010.5
20260831151312 55 0 0.0 0.0 0.00 0.00 0.00 100 1010.5
20260831151154 55 0 0.0 0.0 0.00 0.00 0.00 100 1010.4
20260831150805 54 0 0.0 0.0 0.00 0.00 0.00 100 1010.4
20260831150637 54 0 0.0 0.0 0.00 0.00 0.00 100 1010.4
20260831150258 54 0 0.0 0.0 0.00 0.00 0.00 100 1010.4
20260831150120 54 0 0.0 0.0 0.00 0.00 0.00 100 1010.3
20260831145751 54 0 0.0 0.0 0.00 0.00 0.00 100 1010.3
20260831145603 53 0 0.0 0.0 0.00 0.00 0.00 100 1010.3
20260831145244 53 0 0.0 0.0 0.00 0.00 0.00 100 1010.3
20260831145046 53 0 0.0 0.0 0.00 0.00 0.00 100 1010.2
20260831144737 53 0 0.0 0.0 0.00 0.00 0.00 100 1010.2
20260831144529 53 0 0.0 0.0 0.00 0.00 0.00 100 1010.2
20260831144230 52 0 0.0 0.0 0.00 0.00 0.00 100 1010.2
20260831144012 52 0 0.0 0.0 0.00 0.00 0.00 100 1010.1
20260831143723 52 0 0.0 0.0 0.00 0.00 0.00 100 1010.1
20260831143455 52 0 0.0 0.0 0.00 0.00 0.00 100 1010.1
20260831143216 52 0 0.0 0.0 0.00 0.00 0.00 100 1010.1
20260831142709 52 0 0.0 0.0 0.00 0.00 0.00 100 1010.0
20260831142421 52 0 0.0 0.0 0.00 0.00 0.00 100 1010.0
20260831142202 52 0 0.0 0.0 0.00 0.00 0.00 100 1010.0
20260831141904 51 0 0.0 0.0 0.00 0.00 0.00 100 1009.9
20260831141655 51 0 0.0 0.0 0.00 0.00 0.00 100 1009.9
20260831141347 51 0 0.0 0.0 0.00 0.00 0.00 100 1009.8
20260831141148 51 0 0.0 0.0 0.00 0.00 0.00 100 1009.9
20260831140641 51 0 0.0 0.0 0.00 0.00 0.00 100 1009.9
20260831140313 51 0 0.0 0.0 0.00 0.00 0.00 100 1010.0
20260831140134 51 0 0.0 0.0 0.00 0.00 0.00 100 1009.9
20260831135756 51 0 0.0 0.0 0.00 0.00 0.00 100 1009.8
20260831135627 51 0 0.0 0.0 0.00 0.00 0.00 100 1009.8
20260831135239 51 0 0.0 0.0 0.00 0.00 0.00 100 1009.8
20260831135120 51 0 0.0 0.0 0.00 0.00 0.00 100 1009.9
20260831134722 51 0 0.0 0.0 0.00 0.00 0.00 100 1009.8
20260831134613 51 0 0.0 0.0 0.00 0.00 0.00 100 1009.8
20260831134205 51 0 0.0 0.0 0.00 0.00 0.00 100 1009.8
20260831134106 51 0 0.0 0.0 0.00 0.00 0.00 100 1009.9
20260831133648 51 0 0.0 0.0 0.00 0.00 0.00 100 1009.8
20260831133559 51 0 0.0 0.0 0.00 0.00 0.00 100 1009.9
20260831133131 51 0 0.0 0.0 0.00 0.00 0.00 100 1009.9
20260831133052 51 0 0.0 0.0 0.00 0.00 0.00 100 1009.9
20260831132614 51 0 0.0 0.0 0.00 0.00 0.00 100 1009.9
20260831132545 51 0 0.0 0.0 0.00 0.00 0.00 100 1009.9
20260831132057 51 0 0.0 0.0 0.00 0.00 0.00 100 1009.9
20260831132038 51 0 0.0 0.0 0.00 0.00 0.00 100 1009.9
20260831131540 51 0 0.0 0.0 0.00 0.00 0.00 100 1010.0
20260831131531 51 0 0.0 0.0 0.00 0.00 0.00 100 1010.0
20260831131023 51 0 0.0 0.0 0.00 0.00 0.00 100 1010.0
20260831130517 51 0 0.0 0.0 0.00 0.00 0.00 100 1010.0
20260831130506 51 0 0.0 0.0 0.00 0.00 0.00 100 1010.2
20260831130010 51 0 0.0 0.0 0.00 0.00 0.00 100 1010.2
20260831125949 51 0 0.0 0.0 0.00 0.00 0.00 100 1010.2
20260831125503 51 0 0.0 0.0 0.00 0.00 0.00 100 1010.2
20260831124956 51 0 0.0 0.0 0.00 0.00 0.00 100 1010.2
20260831124915 51 0 0.0 0.0 0.00 0.00 0.00 100 1010.2
20260831124449 51 0 0.0 0.0 0.00 0.00 0.00 100 1010.2
20260831124358 51 0 0.0 0.0 0.00 0.00 0.00 100 1010.2
20260831123942 52 0 0.0 0.0 0.00 0.00 0.00 100 1010.2
20260831123841 52 0 0.0 0.0 0.00 0.00 0.00 100 1010.2
20260831123435 52 0 0.0 0.0 0.00 0.00 0.00 100 1010.2
20260831123324 52 0 0.0 0.0 0.00 0.00 0.00 100 1010.3
20260831122928 52 0 0.0 0.0 0.00 0.00 0.00 100 1010.2
20260831122807 52 0 0.0 0.0 0.00 0.00 0.00 100 1010.3
20260831122421 52 0 0.0 0.0 0.00 0.00 0.00 100 1010.3
20260831122250 52 0 0.0 0.0 0.00 0.00 0.00 100 1010.3
20260831121914 52 0 0.0 0.0 0.00 0.00 0.00 100 1010.3
20260831121733 52 0 0.0 0.0 0.00 0.00 0.00 100 1010.3
20260831121216 52 0 0.0 0.0 0.00 0.00 0.00 100 1010.3
20260831120900 52 0 0.0 0.0 0.00 0.00 0.00 100 1010.4
20260831120659 52 0 0.0 0.0 0.00 0.00 0.00 99 1010.4
20260831120353 52 0 0.0 0.0 0.00 0.00 0.00 99 1010.4
20260831120142 52 0 0.0 0.0 0.00 0.00 0.00 99 1010.4
20260831115846 52 0 0.0 0.0 0.00 0.00 0.00 99 1010.4
20260831115625 52 0 0.0 0.0 0.00 0.00 0.00 99 1010.4
20260831115339 52 0 0.0 0.0 0.00 0.00 0.00 99 1010.5
20260831115108 52 0 0.0 0.0 0.00 0.00 0.00 99 1010.5
20260831114832 52 0 0.0 0.0 0.00 0.00 0.00 99 1010.5
20260831114551 52 0 0.0 0.0 0.00 0.00 0.00 99 1010.5
20260831114325 52 0 0.0 0.0 0.00 0.00 0.00 99 1010.5
20260831114034 52 0 0.0 0.0 0.00 0.00 0.00 99 1010.5
20260831113818 52 0 0.0 0.0 0.00 0.00 0.00 99 1010.5
20260831113517 53 0 0.0 0.0 0.00 0.00 0.00 99 1010.4
20260831113311 53 0 0.0 0.0 0.00 0.00 0.00 99 1010.4
20260831113000 53 0 0.0 0.0 0.00 0.00 0.00 99 1010.4
20260831112804 53 0 0.0 0.0 0.00 0.00 0.00 99 1010.5
20260831112443 53 0 0.0 0.0 0.00 0.00 0.00 99 1010.5
20260831112257 53 0 0.0 0.0 0.00 0.00 0.00 99 1010.5
20260831111926 53 0 0.0 0.0 0.00 0.00 0.00 99 1010.6
20260831111750 53 0 0.0 0.0 0.00 0.00 0.00 99 1010.6
20260831111409 53 0 0.0 0.0 0.00 0.00 0.00 99 1010.5
20260831111243 53 0 0.0 0.0 0.00 0.00 0.00 99 1010.6
20260831110852 53 0 0.0 0.0 0.00 0.00 0.00 99 1010.5
20260831110736 53 0 0.0 0.0 0.00 0.00 0.00 99 1010.6
20260831110335 53 0 0.0 0.0 0.00 0.00 0.00 99 1010.6
20260831110229 53 0 0.0 0.0 0.00 0.00 0.00 99 1010.6
20260831105818 53 0 0.0 0.0 0.00 0.00 0.00 99 1010.6
20260831105722 53 0 0.0 0.0 0.00 0.00 0.00 99 1010.6
20260831105301 53 0 0.0 0.0 0.00 0.00 0.00 99 1010.6
20260831105215 53 0 0.0 0.0 0.00 0.00 0.00 99 1010.6
20260831104744 53 0 0.0 0.0 0.00 0.00 0.00 98 1010.5
20260831104708 53 0 0.0 0.0 0.00 0.00 0.00 98 1010.5
20260831104227 53 0 0.0 0.0 0.00 0.00 0.00 98 1010.6
20260831104201 53 0 0.0 0.0 0.00 0.00 0.00 98 1010.6
20260831103710 53 0 0.0 0.0 0.00 0.00 0.00 98 1010.6
20260831103654 53 0 0.0 0.0 0.00 0.00 0.00 98 1010.6
20260831103147 53 0 0.0 0.0 0.00 0.00 0.00 98 1010.6
20260831102636 53 0 0.0 0.0 0.00 0.00 0.00 98 1010.6
20260831102133 53 0 0.0 0.0 0.00 0.00 0.00 98 1010.5
20260831102119 53 0 0.0 0.0 0.00 0.00 0.00 98 1010.5
20260831101626 53 0 0.0 0.0 0.00 0.00 0.00 98 1010.5
20260831101601 53 0 0.0 0.0 0.00 0.00 0.00 98 1010.5
20260831101119 53 0 0.0 0.0 0.00 0.00 0.00 98 1010.6
20260831101045 53 0 0.0 0.0 0.00 0.00 0.00 98 1010.6
20260831100612 53 0 0.0 0.0 0.00 0.00 0.00 98 1010.7
20260831100527 53 0 0.0 0.0 0.00 0.00 0.00 98 1010.7
20260831100105 53 0 0.0 0.0 0.00 0.00 0.00 98 1010.7
20260831100011 53 0 0.0 0.0 0.00 0.00 0.00 98 1010.7
20260831095558 53 0 0.0 0.0 0.00 0.00 0.00 98 1010.6
20260831095453 53 0 0.0 0.0 0.00 0.00 0.00 98 1010.7
20260831095051 53 0 0.0 0.0 0.00 0.00 0.00 98 1010.8
20260831094937 53 0 0.0 0.0 0.00 0.00 0.00 98 1010.8
20260831094544 53 0 0.0 0.0 0.00 0.00 0.00 97 1010.8
20260831094419 53 0 0.0 0.0 0.00 0.00 0.00 97 1010.9
20260831094037 53 0 0.0 0.0 0.00 0.00 0.00 97 1011.2
20260831093903 53 0 0.0 0.0 0.00 0.00 0.00 97 1011.2
20260831093530 53 0 0.0 0.0 0.00 0.00 0.00 97 1011.1
20260831093345 53 0 0.0 0.0 0.00 0.00 0.00 97 1011.2
20260831093023 53 0 0.0 0.0 0.00 0.00 0.00 97 1011.2
20260831092516 53 0 0.0 0.0 0.00 0.00 0.00 97 1011.3
20260831092311 53 0 0.0 0.0 0.00 0.00 0.00 97 1011.2
20260831092009 54 0 0.0 0.0 0.00 0.00 0.00 97 1011.3
20260831091754 54 0 0.0 0.0 0.00 0.00 0.00 97 1011.2
20260831091502 54 0 0.0 0.0 0.00 0.00 0.00 97 1011.3
20260831091237 54 0 0.0 0.0 0.00 0.00 0.00 97 1011.3
20260831090955 54 0 0.0 0.0 0.00 0.00 0.00 97 1011.3
20260831090720 54 0 0.0 0.0 0.00 0.00 0.00 97 1011.4
20260831090447 54 0 0.0 0.0 0.00 0.00 0.00 97 1011.3
20260831090203 54 0 0.0 0.0 0.00 0.00 0.00 97 1011.3
20260831085941 54 0 0.0 0.0 0.00 0.00 0.00 97 1011.4
20260831085647 54 0 0.0 0.0 0.00 0.00 0.00 96 1011.4
20260831085433 54 0 0.0 0.0 0.00 0.00 0.00 96 1011.4
20260831085129 54 0 0.0 0.0 0.00 0.00 0.00 96 1011.4
20260831084927 54 0 0.0 0.0 0.00 0.00 0.00 96 1011.6
20260831084612 54 0 0.0 0.0 0.00 0.00 0.00 96 1011.6
20260831084420 54 0 0.0 0.0 0.00 0.00 0.00 96 1011.5
20260831084055 54 0 0.0 0.0 0.00 0.00 0.00 96 1011.5
20260831083912 54 0 0.0 0.0 0.00 0.00 0.00 96 1011.6
20260831083633 54 0 0.0 0.0 0.00 0.00 0.00 96 1011.6
20260831083538 54 0 0.0 0.0 0.00 0.00 0.00 96 1011.6
20260831083405 54 0 0.0 0.0 0.00 0.00 0.00 96 1011.7
20260831083021 54 0 0.0 0.0 0.00 0.00 0.00 96 1011.7
20260831082504 54 0 0.0 0.0 0.00 0.00 0.00 96 1011.8
20260831082351 54 0 0.0 0.0 0.00 0.00 0.00 96 1011.8
20260831081947 54 0 0.0 0.0 0.00 0.00 0.00 96 1011.7
20260831081844 54 0 0.0 0.0 0.00 0.00 0.00 96 1011.8
20260831081431 54 0 0.0 0.0 0.00 0.00 0.00 96 1011.9
20260831081337 54 0 0.0 0.0 0.00 0.00 0.00 96 1011.9
20260831080913 54 0 0.0 0.0 0.00 0.00 0.00 95 1011.9
20260831080832 54 0 0.0 0.0 0.00 0.00 0.00 95 1011.9
20260831080323 54 0 0.0 0.0 0.00 0.00 0.00 95 1011.9
20260831075839 54 0 0.0 0.0 0.00 0.00 0.00 95 1012.0
20260831075816 54 0 0.0 0.0 0.00 0.00 0.00 95 1011.9
20260831075322 54 0 0.0 0.0 0.00 0.00 0.00 95 1012.1
20260831075309 54 0 0.0 0.0 0.00 0.00 0.00 95 1012.1
20260831074805 54 0 0.0 0.0 0.00 0.00 0.00 95 1012.1
20260831074802 54 0 0.0 0.0 0.00 0.00 0.00 95 1012.1
20260831074255 55 0 0.0 0.0 0.00 0.00 0.00 95 1012.1
20260831074248 55 0 0.0 0.0 0.00 0.00 0.00 95 1012.1
20260831073748 55 0 0.0 0.0 0.00 0.00 0.00 95 1012.2
20260831073731 55 0 0.0 0.0 0.00 0.00 0.00 95 1012.2
20260831073246 55 0 0.0 0.0 0.00 0.00 0.00 95 1012.2
20260831073214 55 0 0.0 0.0 0.00 0.00 0.00 95 1012.2
20260831072734 55 0 0.0 0.0 0.00 0.00 0.00 94 1012.1
20260831072657 55 0 0.0 0.0 0.00 0.00 0.00 94 1012.2
20260831072229 55 0 0.0 0.0 0.00 0.00 0.00 94 1012.2
20260831072140 55 0 0.0 0.0 0.00 0.00 0.00 94 1012.2
20260831071720 55 0 0.0 0.0 0.00 0.00 0.00 94 1012.1
20260831071623 55 0 0.0 0.0 0.00 0.00 0.00 94 1012.1
20260831071214 55 0 0.0 0.0 0.00 0.00 0.00 94 1012.2
20260831071106 55 0 0.0 0.0 0.00 0.00 0.00 94 1012.3
20260831070706 55 0 0.0 0.0 0.00 0.00 0.00 94 1012.2
20260831070549 55 0 0.0 0.0 0.00 0.00 0.00 94 1012.3
20260831070159 55 0 0.0 0.0 0.00 0.00 0.00 94 1012.4
20260831070032 55 0 0.0 0.0 0.00 0.00 0.00 94 1012.4
20260831065652 55 0 0.0 0.0 0.00 0.00 0.00 94 1012.4
20260831065515 55 0 0.0 0.0 0.00 0.00 0.00 94 1012.4
20260831064958 55 0 0.0 0.0 0.00 0.00 0.00 93 1012.5
20260831064638 55 0 0.0 0.0 0.00 0.00 0.00 93 1012.5
20260831064441 55 0 0.0 0.0 0.00 0.00 0.00 93 1012.5
20260831064131 55 0 0.0 0.0 0.00 0.00 0.00 93 1012.5
20260831063624 56 0 0.0 0.0 0.00 0.00 0.00 93 1012.5
20260831063407 56 0 0.0 0.0 0.00 0.00 0.00 93 1012.5
20260831063117 56 0 0.0 0.0 0.00 0.00 0.00 93 1012.6
20260831062850 56 0 0.0 0.0 0.00 0.00 0.00 92 1012.6
20260831062610 56 0 0.0 0.0 0.00 0.00 0.00 92 1012.6
20260831062334 56 0 0.0 0.0 0.00 0.00 0.00 92 1012.6
20260831062103 56 0 0.0 0.0 0.00 0.00 0.00 92 1012.6
20260831061049 56 0 0.0 0.0 0.00 0.00 0.00 92 1012.9
20260831060743 56 0 0.0 0.0 0.00 0.00 0.00 92 1012.9
20260831060542 56 0 0.0 0.0 0.00 0.00 0.00 92 1012.8
20260831060035 56 0 0.0 0.0 0.00 0.00 0.00 91 1012.8
20260831055708 56 0 0.0 0.0 0.00 0.00 0.00 91 1012.9
20260831055528 56 0 0.0 0.0 0.00 0.00 0.00 91 1013.0
20260831055151 56 0 0.0 0.0 0.00 0.00 0.00 91 1013.0
20260831055021 56 0 0.0 0.0 0.00 0.00 0.00 91 1013.0
20260831054634 57 0 0.0 0.0 0.00 0.00 0.00 90 1013.0
20260831054514 57 0 0.0 0.0 0.00 0.00 0.00 90 1013.0
20260831054118 57 0 0.0 0.0 0.00 0.00 0.00 90 1013.1
20260831054007 57 0 0.0 0.0 0.00 0.00 0.00 90 1013.1
20260831053601 57 0 0.0 0.0 0.00 0.00 0.00 90 1013.1
20260831053500 57 0 0.0 0.0 0.00 0.00 0.00 90 1013.1
20260831053043 57 0 0.0 0.0 0.00 0.00 0.00 90 1013.1
20260831052953 57 0 0.0 0.0 0.00 0.00 0.00 90 1013.1
20260831052526 57 0 0.0 0.0 0.00 0.00 0.00 89 1013.3
20260831052009 58 0 0.0 0.0 0.00 0.00 0.00 89 1013.3
20260831051939 58 0 0.0 0.0 0.00 0.00 0.00 89 1013.3
20260831051452 58 0 0.0 0.0 0.00 0.00 0.00 89 1013.3
20260831051432 58 0 0.0 0.0 0.00 0.00 0.00 89 1013.3
20260831050925 58 0 0.0 0.0 0.00 0.00 0.00 89 1013.3
20260831050418 58 0 0.0 4.0 0.00 0.00 0.00 88 1013.3
20260831045901 58 0 0.0 4.0 0.00 0.00 0.00 88 1013.3
20260831045405 58 0 0.0 4.0 0.00 0.00 0.00 88 1013.4
20260831045344 58 0 0.0 4.0 0.00 0.00 0.00 88 1013.4
20260831044857 58 0 0.0 8.0 0.00 0.00 0.00 88 1013.4
20260831044350 59 0 0.0 8.0 0.00 0.00 0.00 88 1013.4
20260831044311 59 47 3.0 8.0 0.00 0.00 0.00 88 1013.5
20260831043843 59 0 0.0 8.0 0.00 0.00 0.00 88 1013.5
20260831043753 59 26 3.0 8.0 0.00 0.00 0.00 88 1013.5
20260831042719 59 16 2.0 5.0 0.00 0.00 0.00 88 1013.5
20260831042202 59 11 5.0 5.0 0.00 0.00 0.00 87 1013.5
20260831041815 59 0 0.0 0.0 0.00 0.00 0.00 87 1013.6
20260831041645 59 16 5.0 7.0 0.00 0.00 0.00 87 1013.6
20260831041308 59 0 0.0 7.0 0.00 0.00 0.00 87 1013.6
20260831041128 59 0 0.0 7.0 0.00 0.00 0.00 87 1013.5
20260831040801 59 18 1.0 7.0 0.00 0.00 0.00 87 1013.5
20260831040611 59 0 0.0 7.0 0.00 0.00 0.00 87 1013.5
20260831040254 59 30 3.0 7.0 0.00 0.00 0.00 87 1013.5
20260831040057 59 30 3.0 7.0 0.00 0.00 0.00 87 1013.4
20260831035747 59 334 2.0 4.0 0.00 0.00 0.00 87 1013.5
20260831035537 59 0 0.0 4.0 0.00 0.00 0.00 87 1013.5
20260831035241 59 330 2.0 4.0 0.00 0.00 0.00 87 1013.7
20260831035020 59 330 3.0 3.0 0.00 0.00 0.00 87 1013.6
20260831034733 59 0 0.0 0.0 0.00 0.00 0.00 87 1013.6
20260831034503 59 0 0.0 0.0 0.00 0.00 0.00 87 1013.6
20260831034228 59 0 0.0 4.0 0.00 0.00 0.00 87 1013.6
20260831033719 59 0 0.0 4.0 0.00 0.00 0.00 87 1013.5
20260831033429 59 0 0.0 4.0 0.00 0.00 0.00 86 1013.6
20260831033212 59 0 0.0 4.0 0.00 0.00 0.00 86 1013.5
20260831032912 59 0 0.0 4.0 0.00 0.00 0.00 86 1013.5
20260831032705 59 23 4.0 4.0 0.00 0.00 0.00 86 1013.5
20260831032355 59 0 0.0 9.0 0.00 0.00 0.00 86 1013.5
20260831032158 59 56 3.0 9.0 0.00 0.00 0.00 86 1013.5
20260831031838 59 4 4.0 9.0 0.00 0.00 0.00 86 1013.5
20260831031651 59 0 0.0 9.0 0.00 0.00 0.00 86 1013.5
20260831031321 59 0 0.0 9.0 0.00 0.00 0.00 86 1013.5
20260831031144 59 18 6.0 9.0 0.00 0.00 0.00 86 1013.4
20260831030804 59 18 4.0 9.0 0.00 0.00 0.00 85 1013.6
20260831030638 59 18 6.0 9.0 0.00 0.00 0.00 85 1013.6
20260831030247 60 35 4.0 11.0 0.00 0.00 0.00 85 1013.6
20260831030130 59 35 5.0 11.0 0.00 0.00 0.00 84 1013.6
20260831025730 60 11 8.0 11.0 0.00 0.00 0.00 84 1013.6
20260831025623 60 11 5.0 11.0 0.00 0.00 0.00 84 1013.7
20260831025116 60 357 4.0 11.0 0.00 0.00 0.00 83 1013.6
20260831024656 60 26 9.0 11.0 0.00 0.00 0.00 83 1013.7
20260831024609 60 9 4.0 10.0 0.00 0.00 0.00 83 1013.7
20260831024139 60 9 7.0 10.0 0.00 0.00 0.00 82 1013.7
20260831024102 60 9 6.0 10.0 0.00 0.00 0.00 82 1013.7
20260831023623 60 15 5.0 7.0 0.00 0.00 0.00 81 1013.7
20260831023555 60 15 6.0 7.0 0.00 0.00 0.00 81 1013.7
20260831023105 61 4 8.0 13.0 0.00 0.00 0.00 81 1013.7
20260831023048 60 4 7.0 13.0 0.00 0.00 0.00 81 1013.7
20260831022548 61 9 7.0 13.0 0.00 0.00 0.00 81 1013.8
20260831022541 61 9 8.0 13.0 0.00 0.00 0.00 81 1013.8
20260831022031 61 8 8.0 13.0 0.00 0.00 0.00 80 1014.0
20260831021527 61 7 8.0 13.0 0.00 0.00 0.00 80 1014.0
20260831021514 61 7 8.0 13.0 0.00 0.00 0.00 80 1014.0
20260831021020 61 357 7.0 12.0 0.00 0.00 0.00 80 1014.0
20260831020957 61 357 7.0 12.0 0.00 0.00 0.00 80 1014.0
20260831020513 61 11 7.0 12.0 0.00 0.00 0.00 80 1014.1
20260831020440 61 11 9.0 12.0 0.00 0.00 0.00 80 1014.1
20260831015923 62 11 4.0 12.0 0.00 0.00 0.00 80 1014.1
20260831015406 62 33 7.0 14.0 0.00 0.00 0.00 80 1014.1
20260831014952 62 12 8.0 14.0 0.00 0.00 0.00 80 1014.2
20260831014849 62 260 4.0 14.0 0.00 0.00 0.00 80 1014.1
20260831013938 62 54 4.0 14.0 0.00 0.00 0.00 79 1014.3
20260831013815 62 15 5.0 14.0 0.00 0.00 0.00 78 1014.3
20260831013431 62 49 7.0 9.0 0.00 0.00 0.00 78 1014.4
20260831013258 62 40 5.0 17.0 0.00 0.00 0.00 78 1014.4
20260831012924 63 40 6.0 17.0 0.00 0.00 0.00 77 1014.5
20260831012741 63 26 8.0 17.0 0.00 0.00 0.00 77 1014.5
20260831012417 63 25 7.0 17.0 0.00 0.00 0.00 76 1014.6
20260831012224 63 37 10.0 17.0 0.00 0.00 0.00 76 1014.5
20260831011910 63 37 8.0 17.0 0.00 0.00 0.00 76 1014.6
20260831011707 63 8 10.0 17.0 0.00 0.00 0.00 75 1014.6
20260831011403 64 40 6.0 9.0 0.00 0.00 0.00 75 1014.6
20260831010856 64 28 6.0 20.0 0.00 0.00 0.00 74 1014.6
20260831010633 64 22 10.0 20.0 0.00 0.00 0.00 74 1014.7
20260831010349 64 33 11.0 20.0 0.00 0.00 0.00 74 1014.6
20260831010118 64 1 7.0 20.0 0.00 0.00 0.00 74 1014.7
20260831005842 64 9 5.0 20.0 0.00 0.00 0.00 73 1014.8
20260831005559 64 2 9.0 20.0 0.00 0.00 0.00 73 1014.8
20260831004525 65 21 9.0 16.0 0.00 0.00 0.00 72 1014.9
20260831004321 65 357 9.0 16.0 0.00 0.00 0.00 71 1015.0
20260831004008 66 16 10.0 15.0 0.00 0.00 0.00 71 1015.1
20260831003814 66 65 6.0 15.0 0.00 0.00 0.00 71 1015.1
20260831003451 65 92 9.0 15.0 0.00 0.00 0.00 71 1015.1
20260831003307 66 0 6.0 15.0 0.00 0.00 0.00 71 1015.1
20260831002934 65 51 6.0 15.0 0.00 0.00 0.00 71 1015.1
20260831002800 66 22 10.0 15.0 0.00 0.00 0.00 71 1015.1
20260831002417 66 33 8.0 15.0 0.00 0.00 0.00 70 1015.1
20260831002253 66 33 11.0 15.0 0.00 0.00 0.00 70 1015.2
20260831001900 66 12 8.0 17.0 0.00 0.00 0.00 70 1015.2
20260831001746 66 355 8.0 17.0 0.00 0.00 0.00 70 1015.2
20260831001343 66 9 5.0 17.0 0.00 0.00 0.00 69 1015.3
20260831001240 66 12 12.0 17.0 0.00 0.00 0.00 69 1015.2
20260831000732 66 355 13.0 17.0 0.00 0.00 0.00 69 1015.3
20260831000310 67 33 11.0 17.0 0.00 0.00 0.00 69 1015.4
20260830235752 67 22 8.0 16.0 0.00 0.00 0.00 69 1015.4
20260830235718 67 22 9.0 16.0 0.00 0.00 0.00 69 1015.4
20260830235235 67 315 8.0 16.0 0.00 0.00 0.00 69 1015.5
20260830235211 67 315 8.0 16.0 0.00 0.00 0.00 68 1015.4
20260830234157 66 320 10.0 16.0 0.00 0.00 0.00 69 1015.5
20260830233644 66 14 12.0 16.0 0.00 0.00 0.00 67 1015.6
20260830233143 66 35 8.0 14.0 0.00 0.00 0.00 67 1015.6
20260830233127 66 35 9.0 14.0 0.00 0.00 0.00 67 1015.7
20260830232636 66 30 9.0 13.0 0.00 0.00 0.00 68 1015.6